Showing default

BLACKJACK ACES-3, 56950

Orbit data source: Space-Track

BLACKJACK ACES-3, 56950 is a payload satellite owned by DARPA (US) in SSO that was launched on Mon, 12 Jun 2023 UTC via an FALCON 9 launch vehicle from the Air Force Western Test Range (AFWTR). Payload-class satellites include a variety of spacecraft equipped with specific instruments for various scientific and technological missions. These include communications satellites like Starlink; space stations such as the ISS; scientific satellites like the Hubble; Earth observation satellites from companies like Planet Labs, Umbra, and HawkEye 360; GPS; miniature CubeSats for education and research; and military/defense satellites.

Loading next visibility...
Identifier
56950, 2023-084U
Orbit
SSO
Country
Flag of USUS
Related business
Manufacturer
BLCAN/LMSS
Mission
Operational Defense Communications
Bus & Motor
X-SAT, Unknown motor
Mass
~200 kg wet, ~200 kg dry
Launch date (UTC)
2023-06-12 (3 years ago)
Launch vehicle
FALCON 9
Launch site
Air Force Western Test Range (AFWTR)
Object type
Payload
Rocket body
Debris
Shape & HBR
Box, 3.6 m
Radar Cross Section
0.875 m², Large (>1 m²)

Expand to show TLE details & history
Last TLE update: 16 hours ago

TLE from 16 hours ago
0 BLACKJACK ACES-3
1 56950U 23084U   26067.95277770  .00009887  00000-0  45535-3 0  9994
2 56950  97.6038 202.4496 0003294  17.3274 342.8073 15.20498855151954
Epoch: 2026-03-08T22:51Z
TLE epoch observation values (Epoch: 2026-03-08T22:51:59.993Z)
Latitude
0.00002°
Longitude
52.79694°
Altitude
505.254 km
Speed
7.613 km/s
True Right ascension
13h 29m 47s
True Declination
0° 00' 00"
Sunlit
Object was in full shadow at epoch
Visualization orbit readout
Latitude
Unknown
Longitude
Unknown
Altitude
Unknown
Speed
Unknown
Apparent Right ascension
Unknown
Apparent Declination
Unknown
Sunlit
N/A
Visualization observer readout
Local Sidereal Time
19:17:36
Azimuth
Unknown
Elevation
Unknown
Doppler factor
Unknown
Orbital elements
Apogee altitude
503.575 km
Perigee altitude
499.042 km
Semi-major axis
6,879.446 km
Eccentricity
0.00033
Inclination
97.6038°
RAAN
202.4496°
Arg. of periapsis
17.3274°
True anomaly
342.79614°
Mean anomaly
342.8073°
Eccentric anomaly
342.80172°
Mean motion
3.80376 °/min
Orbital period
94.64 mins
BSTAR
0.00045535
Loading maneuver chart data...
Computing Atmospheric mass density...
Loading historical data...
Loading historical data...
Loading historical data...
Loading historical data...
Loading historical data...
Loading historical data...
Loading historical data...

Documentation

Showing up to 5 results
|